Weather History for Logan, UT

Change the Weather History Date:

Monday, January 21, 2013

  Actual Average Record
Temperature  
Mean Temperature -2 °F -  
Max Temperature 8 °F 31 °F 60 °F (1967)
Min Temperature -13 °F 13 °F -14 °F (1987)
Degree Days  
Heating Degree Days 68    
Moisture  
Dew Point -10 °F    
Average Humidity 82    
Maximum Humidity 92    
Minimum Humidity 71    
Precipitation  
Precipitation 0.00 in - - ()
Sea Level Pressure  
Sea Level Pressure 30.68 in    
Wind  
Wind Speed 1 mph (WNW)    
Max Wind Speed 6 mph    
Max Gust Speed -    
Averages and records for this station are not official NWS values.
T = Trace of Precipitation, MM = Missing Value Source: NWS Daily Summary

Daily Weather History Graph

Daily Weather History Graph

Search for Another Location

Airport:

Trip Planner

Search our weather history database for the weather conditions in past years. The results will help you decide how hot, cold, wet, or windy it might be!

Date:

Astronomy

Jan. 21, 2013 Rise Set
Actual Time 7:48 AM MST 5:29 PM MST
Civil Twilight 7:18 AM MST 5:59 PM MST
Nautical Twilight 6:44 AM MST 6:33 PM MST
Astronomical Twilight 6:11 AM MST 7:06 PM MST
Moon 1:11 PM MST (1/21) 3:20 AM MST (1/21)
Length of Visible Light 10h 41m
Length of Day
9h 40m
Waxing Gibbous, 75% of the Moon is Illuminated
Jan 21
Waxing Gibbous
Jan 26
Full
Feb 3
Last Quarter
Feb 10
New
Feb 17
First Quarter

Hourly Weather History & Observations

Time (MST) Temp. Windchill Dew Point Humidity Pressure Visibility Wind Dir Wind Speed Gust Speed Precip Events Conditions
12:51 AM -6.0 °F -14.7 °F -11.9 °F 75% 30.80 in - North 3.5 mph - N/A   Clear
1:51 AM -8.0 °F - -11.9 °F 83% 30.80 in - Calm Calm - N/A   Clear
2:51 AM -6.0 °F - -9.0 °F 87% 30.79 in - Calm Calm - N/A   Partly Cloudy
3:02 AM -5.8 °F - -9.4 °F 84% 30.50 in - Calm Calm - N/A   Mostly Cloudy
3:17 AM -9.4 °F -20.9 °F -13.0 °F 84% 30.50 in - SW 4.6 mph - N/A   Overcast
3:51 AM -11.0 °F - -16.1 °F 78% 30.81 in - Calm Calm - N/A   Overcast
4:51 AM -9.9 °F - -15.0 °F 78% 30.80 in - Calm Calm - N/A   Partly Cloudy
5:06 AM -11.2 °F - -14.8 °F 84% 30.49 in - Calm Calm - N/A   Scattered Clouds
5:12 AM -9.4 °F - -16.6 °F 71% 30.49 in - Calm Calm - N/A   Mostly Cloudy
5:21 AM -11.2 °F - -16.6 °F 77% 30.49 in - Calm Calm - N/A   Mostly Cloudy
5:51 AM -8.0 °F - -14.1 °F 75% 30.80 in - Calm Calm - N/A   Overcast
6:17 AM -9.4 °F - -14.8 °F 77% 30.49 in - Calm Calm - N/A   Overcast
6:23 AM -9.4 °F - -13.0 °F 84% 30.50 in - Calm Calm - N/A   Overcast
6:51 AM -13.0 °F -22.7 °F -16.1 °F 86% 30.85 in - NW 3.5 mph - N/A   Overcast
7:01 AM -11.2 °F - -16.6 °F 77% 30.51 in - Calm Calm - N/A   Overcast
7:11 AM -11.2 °F - -14.8 °F 84% 30.50 in - Calm Calm - N/A   Overcast
7:51 AM -11.0 °F - -14.1 °F 86% 30.87 in - Calm Calm - N/A   Overcast
8:51 AM -9.0 °F - -11.9 °F 87% 30.84 in - Calm Calm - N/A   Overcast
9:01 AM -9.4 °F - -11.2 °F 92% 30.51 in - Calm Calm - N/A   Overcast
9:09 AM -7.6 °F - -11.2 °F 84% 30.51 in - Calm Calm - N/A   Overcast
9:51 AM -5.1 °F - -9.9 °F 80% 30.84 in - Calm Calm - N/A   Partly Cloudy
10:51 AM -0.9 °F - -5.1 °F 83% 30.82 in - Calm Calm - N/A   Clear
11:51 AM 1.9 °F - -0.9 °F 88% 30.82 in - Calm Calm - N/A   Clear
12:51 PM 3.0 °F - -2.0 °F 80% 30.78 in - Calm Calm - N/A   Clear
1:51 PM 5.0 °F -2.1 °F -0.9 °F 76% 30.76 in - West 3.5 mph - N/A   Clear
2:51 PM 8.1 °F - 1.0 °F 73% 30.73 in - Calm Calm - N/A   Clear
3:51 PM 7.0 °F - 1.0 °F 77% 30.73 in - Calm Calm - N/A   Clear
4:51 PM 3.9 °F -6.9 °F -2.0 °F 76% 30.73 in - NNW 5.8 mph - N/A   Clear
5:51 PM 1.0 °F - -4.0 °F 79% 30.73 in - Calm Calm - N/A   Clear
6:51 PM 1.9 °F - -2.0 °F 83% 30.75 in - Calm Calm - N/A   Clear
7:51 PM -4.0 °F - -8.0 °F 83% 30.76 in - Calm Calm - N/A   Clear
8:51 PM -7.1 °F - -11.0 °F 83% 30.76 in - Calm Calm - N/A   Clear
9:51 PM -4.0 °F - -7.1 °F 87% 30.76 in - Calm Calm - N/A   Clear
10:51 PM -4.0 °F -12.4 °F -7.1 °F 87% 30.75 in - WSW 3.5 mph - N/A   Scattered Clouds
10:56 PM -5.8 °F -14.5 °F -7.6 °F 92% 30.45 in - WSW 3.5 mph - N/A   Mostly Cloudy
11:05 PM -5.8 °F - -7.6 °F 92% 30.45 in - Calm Calm - N/A   Mostly Cloudy
11:22 PM -5.8 °F - -7.6 °F 92% 30.45 in - Calm Calm - N/A   Overcast
11:51 PM -7.1 °F - -11.0 °F 83% 30.75 in - Calm Calm - N/A   Overcast